Location: Gwatt
(46.7204°N, 7.6223°E)
Time: 06:27:13
(UTC+00:00)

Vanguard 2 Rocket - Visible Passes

Search period start: 28 January 2021 00:00
Search period end: 07 February 2021 00:00
Orbit: 554 x 3325 km, 32.9° (Epoch: 27 January)

Date Brightness Start Highest point End Pass type
(mag) Time Alt. Az. Time Alt. Az. Time Alt. Az.
28 Jan 9.3 18:28:05 10° WSW 18:33:13 16° SW 18:37:07 10° S visible
29 Jan 9.3 17:25:32 10° WSW 17:34:00 25° SSW 17:39:40 10° SSE visible
30 Jan 9.8 18:43:24 10° WSW 18:46:09 12° SW 18:48:33 10° SSW visible
31 Jan 9.6 17:39:32 10° WSW 17:47:04 20° SW 17:52:24 10° S visible
02 Feb 10.0 17:54:13 10° WSW 17:59:54 15° SW 18:04:21 10° SSW visible
03 Feb 9.9 16:50:36 10° W 17:00:36 24° SW 17:07:26 10° SSE visible
05 Feb 10.2 17:05:01 10° W 17:13:20 19° SW 17:19:31 10° S visible
